Satellite: FENGYUN1
Catalog number: 25730
Epoch time:      05356.58246014
Element set:     608
Inclination:      098.6155 deg
RA of node:       350.9143 deg
Eccentricity:    0.0013809
Arg of perigee:   286.0875 deg
Mean anomaly:     073.8778 deg
Mean motion:   14.11803418 rev/day
Decay rate:      -2.55e-06 rev/day^2
Epoch rev:           34109
Checksum:              307

Satellite: OKEAN-0
Catalog number: 25860
Epoch time:      05356.63463108
Element set:     621
Inclination:      097.7442 deg
RA of node:       014.1128 deg
Eccentricity:    0.0000985
Arg of perigee:   045.3415 deg
Mean anomaly:     314.7898 deg
Mean motion:   14.73323831 rev/day
Decay rate:        6.8e-07 rev/day^2
Epoch rev:           34575
Checksum:              298

Satellite: NOAA-16
Catalog number: 26536
Epoch time:      05356.03429438
Element set:     668
Inclination:      099.0431 deg
RA of node:       315.8108 deg
Eccentricity:    0.0009920
Arg of perigee:   259.6669 deg
Mean anomaly:     100.3421 deg
Mean motion:   14.12300178 rev/day
Decay rate:       1.37e-06 rev/day^2
Epoch rev:           27057
Checksum:              296

Satellite: NOAA-17
Catalog number: 27453
Epoch time:      05356.14500706
Element set:     695
Inclination:      098.6431 deg
RA of node:       066.6398 deg
Eccentricity:    0.0011211
Arg of perigee:   226.8066 deg
Mean anomaly:     133.2179 deg
Mean motion:   14.23734783 rev/day
Decay rate:       1.71e-06 rev/day^2
Epoch rev:           18158
Checksum:              306

Satellite: NOAA-18
Catalog number: 28654
Epoch time:      05356.27619883
Element set:     288
Inclination:      098.7693 deg
RA of node:       298.5277 deg
Eccentricity:    0.0014682
Arg of perigee:   005.5810 deg
Mean anomaly:     354.5540 deg
Mean motion:   14.10912160 rev/day
Decay rate:       -4.9e-07 rev/day^2
Epoch rev:            3043
Checksum:              323

/EX
SB KEPS @ AMSAT  $ORB05356.M
Orbital Elements  05356.MISC

HR AMSAT ORBITAL ELEMENTS FOR MANNED AND MISCELLANEOUS SATELLITES
FROM WA5QGD FORT WORTH,TX December 22, 2005
Send SUBSCRIBE KEPS/UNSUBSCRIBE KEPS to majordomo@amsat.org only
BID: ORB05356.M
TO ALL RADIO AMATEURS BT

Satellite: HUBBLE
Catalog number: 20580
Epoch time:      05355.70986092
Element set:     497
Inclination:      028.4662 deg
RA of node:       126.7369 deg
Eccentricity:    0.0003901
Arg of perigee:   106.4872 deg
Mean anomaly:     253.6145 deg
Mean motion:   14.99924103 rev/day
Decay rate:       3.90e-06 rev/day^2
Epoch rev:           65842
Checksum:              311

Satellite: UARS
Catalog number: 21701
Epoch time:      05356.72579350
Element set:     642
Inclination:      056.9775 deg
RA of node:       131.7722 deg
Eccentricity:    0.0105375
Arg of perigee:   229.1682 deg
Mean anomaly:     130.0311 deg
Mean motion:   15.41438208 rev/day
Decay rate:      8.108e-05 rev/day^2
Epoch rev:           78207
Checksum:              287

Satellite: PO-34
Catalog number: 25520
Epoch time:      05356.46784286
Element set:     351
Inclination:      028.4570 deg
RA of node:       133.2544 deg
Eccentricity:    0.0005792
Arg of perigee:   116.6439 deg
Mean anomaly:     243.4754 deg
Mean motion:   15.16556134 rev/day
Decay rate:       6.70e-06 rev/day^2
Epoch rev:           39519
Checksum:              311

Satellite: ISS
Catalog number: 25544
Epoch time:      05357.07403567
Element set:       1
Inclination:      051.6465 deg
RA of node:       012.8031 deg
Eccentricity:    0.0010744
Arg of perigee:   070.3976 deg
Mean anomaly:     338.5824 deg
Mean motion:   15.73283391 rev/day
Decay rate:     1.4509e-04 rev/day^2
Epoch rev:           40541
Checksum:              278

Satellite: OO-38
Catalog number: 26063
Epoch time:      05355.72904550
Element set:    0505
Inclination:      100.1910 deg
RA of node:       249.8185 deg
Eccentricity:    0.0036625
Arg of perigee:   246.8377 deg
Mean anomaly:     112.8943 deg
Mean motion:   14.35747338 rev/day
Decay rate:        8.2e-07 rev/day^2
Epoch rev:           30921
Checksum:              305

Satellite: NO-45
Catalog number: 26932
Epoch time:      05356.70466015
Element set:     199
Inclination:      067.0572 deg
RA of node:       101.9286 deg
Eccentricity:    0.0005082
Arg of perigee:   292.3748 deg
Mean anomaly:     067.6750 deg
Mean motion:   14.29510117 rev/day
Decay rate:      -1.39e-06 rev/day^2
Epoch rev:           22074
Checksum:              303

/EX



----
Via the keps mailing list at AMSAT.ORG courtesy of AMSAT-NA.
To unsubscribe, send "unsubscribe keps" to Majordomo@amsat.org

--- ViaMAIL!/WC v1.60d
 * Origin: Chowdanet (401-724-4410) telnet://chowdanet.com  (1:323/120)